B1012 ZJSY-ZJHK

Flight info

Callsign B1012
Flight time 0h 25m
Altitude 22600
Route PORAP1N PORAP PORAP9XA
Aircraft C700/M-SBDGHM1RWXY/LB2

Departure

Time 2026-05-06 15:52
Airport Sanya Phoenix International Airport (ZJSY)

Arrival

Time 2026-05-06 16:17
Airport Haikou Meilan International Airport (ZJHK)
Time Latitude Longitude Altitude Speed Heading
2026-05-06 15:40 18.30501 109.40313 78 ft 0 kts 354°
2026-05-06 15:45 18.30511 109.40312 70 ft 0 kts 354°
2026-05-06 15:45 18.30541 109.40304 78 ft 12 kts 328°
2026-05-06 15:45 18.30504 109.40242 78 ft 13 kts 167°
2026-05-06 15:45 18.30404 109.40226 74 ft 19 kts 242°
2026-05-06 15:46 18.30363 109.40126 78 ft 15 kts 169°
2026-05-06 15:46 18.30243 109.40152 82 ft 0 kts 174°
2026-05-06 15:46 18.30238 109.40156 80 ft 2 kts 128°
2026-05-06 15:46 18.30250 109.40196 83 ft 8 kts 77°
2026-05-06 15:47 18.30235 109.40249 79 ft 12 kts 112°
2026-05-06 15:47 18.30201 109.40400 77 ft 24 kts 90°
2026-05-06 15:47 18.30217 109.40658 74 ft 54 kts 82°
2026-05-06 15:47 18.30288 109.41225 82 ft 100 kts 84°
2026-05-06 15:48 18.30199 109.42040 99 ft 120 kts 110°
2026-05-06 15:48 18.30121 109.42244 74 ft 0 kts 98°
2026-05-06 15:48 18.30122 109.42244 73 ft 0 kts 45°
2026-05-06 15:48 18.30417 109.40813 77 ft 0 kts 45°
2026-05-06 15:51 18.30386 109.40833 74 ft 13 kts 172°
2026-05-06 15:51 18.30269 109.40858 72 ft 19 kts 152°
2026-05-06 15:51 18.30257 109.40986 76 ft 46 kts 82°
2026-05-06 15:51 18.30350 109.41673 142 ft 140 kts 84°
2026-05-06 15:52 18.30504 109.42871 784 ft 190 kts 82°
2026-05-06 15:52 18.30747 109.44460 1576 ft 246 kts 81°
2026-05-06 15:52 18.31011 109.46448 2453 ft 286 kts 84°
2026-05-06 15:52 18.31277 109.48394 3295 ft 257 kts 76°
2026-05-06 15:53 18.32288 109.49990 4109 ft 269 kts 40°
2026-05-06 15:53 18.33874 109.51091 5000 ft 277 kts 32°
2026-05-06 15:53 18.35549 109.52190 5963 ft 297 kts 33°
2026-05-06 15:53 18.37396 109.53442 6919 ft 332 kts 33°
2026-05-06 15:54 18.39386 109.54811 7875 ft 351 kts 33°
2026-05-06 15:54 18.41463 109.56234 8855 ft 360 kts 32°
2026-05-06 15:54 18.43589 109.57686 9866 ft 367 kts 32°
2026-05-06 15:54 18.45749 109.59162 10787 ft 372 kts 32°
2026-05-06 15:55 18.47937 109.60661 11733 ft 378 kts 32°
2026-05-06 15:55 18.50219 109.61992 12689 ft 382 kts 22°
2026-05-06 15:55 18.52686 109.63111 13691 ft 389 kts 22°
2026-05-06 15:55 18.55159 109.64323 14600 ft 394 kts 24°
2026-05-06 15:56 18.57668 109.65558 15531 ft 400 kts 23°
2026-05-06 15:56 18.60226 109.66767 16486 ft 405 kts 22°
2026-05-06 15:56 18.62821 109.67994 17480 ft 411 kts 23°
2026-05-06 15:56 18.65366 109.69221 18433 ft 418 kts 23°
2026-05-06 15:57 18.68072 109.70517 19337 ft 422 kts 22°
2026-05-06 15:57 18.70864 109.71553 20254 ft 427 kts 15°
2026-05-06 15:57 18.73757 109.72383 21198 ft 424 kts 13°
2026-05-06 15:57 18.76532 109.73176 22173 ft 411 kts 15°
2026-05-06 15:58 18.79312 109.74145 22632 ft 435 kts 18°
2026-05-06 15:58 18.82231 109.75225 22642 ft 447 kts 18°
2026-05-06 15:58 18.85177 109.76229 22643 ft 457 kts 15°
2026-05-06 15:58 18.88232 109.77211 22650 ft 459 kts 16°
2026-05-06 15:59 18.91289 109.78245 22647 ft 461 kts 17°
2026-05-06 15:59 18.94334 109.79312 22648 ft 462 kts 17°
2026-05-06 15:59 18.97394 109.80357 22649 ft 459 kts 16°
2026-05-06 15:59 19.00338 109.81343 22644 ft 427 kts 16°
2026-05-06 16:00 19.03053 109.82266 22629 ft 399 kts 16°
2026-05-06 16:00 19.05711 109.83175 22628 ft 394 kts 16°
2026-05-06 16:00 19.08228 109.84033 22576 ft 367 kts 16°
2026-05-06 16:00 19.10576 109.84832 22210 ft 352 kts 16°
2026-05-06 16:01 19.12873 109.85612 21784 ft 341 kts 16°
2026-05-06 16:01 19.15110 109.86374 21374 ft 332 kts 16°
2026-05-06 16:01 19.17302 109.87122 20945 ft 333 kts 15°
2026-05-06 16:01 19.19650 109.87916 20435 ft 379 kts 16°
2026-05-06 16:02 19.22270 109.88806 19808 ft 413 kts 16°
2026-05-06 16:02 19.25032 109.89757 19197 ft 421 kts 17°
2026-05-06 16:02 19.27837 109.90718 18626 ft 422 kts 16°
2026-05-06 16:02 19.29690 109.91347 18241 ft 421 kts 16°
2026-05-06 16:03 19.32478 109.92298 17605 ft 417 kts 17°
2026-05-06 16:03 19.36138 109.93550 16882 ft 411 kts 16°
2026-05-06 16:03 19.37945 109.94168 16531 ft 409 kts 17°
2026-05-06 16:03 19.41522 109.95389 15827 ft 405 kts 17°
2026-05-06 16:04 19.43331 109.96008 15468 ft 403 kts 17°
2026-05-06 16:04 19.46849 109.97212 14783 ft 399 kts 17°
2026-05-06 16:04 19.48627 109.97821 14437 ft 397 kts 17°
2026-05-06 16:04 19.51214 109.98706 13927 ft 394 kts 17°
2026-05-06 16:05 19.53811 109.99595 13388 ft 390 kts 17°
2026-05-06 16:05 19.56387 110.00478 12880 ft 387 kts 17°
2026-05-06 16:05 19.58942 110.01354 12377 ft 385 kts 17°
2026-05-06 16:05 19.61492 110.02227 11880 ft 383 kts 17°
2026-05-06 16:06 19.64022 110.03095 11446 ft 381 kts 17°
2026-05-06 16:06 19.66550 110.03962 10961 ft 380 kts 17°
2026-05-06 16:06 19.69051 110.04821 10468 ft 372 kts 17°
2026-05-06 16:06 19.71389 110.05625 10059 ft 335 kts 17°
2026-05-06 16:07 19.73527 110.06358 9676 ft 319 kts 17°
2026-05-06 16:07 19.75590 110.07066 9287 ft 305 kts 17°
2026-05-06 16:07 19.77569 110.07746 8921 ft 293 kts 17°
2026-05-06 16:07 19.79486 110.08404 8551 ft 284 kts 17°
2026-05-06 16:08 19.81343 110.09043 8206 ft 277 kts 17°
2026-05-06 16:08 19.83159 110.09667 7856 ft 271 kts 17°
2026-05-06 16:08 19.84945 110.10280 7510 ft 267 kts 17°
2026-05-06 16:08 19.86677 110.10876 7175 ft 263 kts 17°
2026-05-06 16:09 19.87848 110.11279 6948 ft 261 kts 17°
2026-05-06 16:09 19.88088 110.11361 6897 ft 260 kts 17°
2026-05-06 16:09 19.89861 110.11971 6548 ft 258 kts 17°
2026-05-06 16:09 19.91557 110.12567 6207 ft 256 kts 20°
2026-05-06 16:10 19.93071 110.13521 5856 ft 251 kts 40°
2026-05-06 16:10 19.94224 110.14851 5526 ft 239 kts 57°
2026-05-06 16:10 19.94931 110.16373 5221 ft 228 kts 73°
2026-05-06 16:10 19.95266 110.18014 4788 ft 225 kts 87°
2026-05-06 16:11 19.95297 110.19653 4479 ft 218 kts 92°
2026-05-06 16:11 19.95296 110.21252 4193 ft 215 kts 91°
2026-05-06 16:11 19.95311 110.22835 3918 ft 214 kts 92°
2026-05-06 16:11 19.95298 110.24393 3650 ft 214 kts 92°
2026-05-06 16:12 19.95321 110.25977 3374 ft 213 kts 91°
2026-05-06 16:12 19.95314 110.27549 3106 ft 211 kts 93°
2026-05-06 16:12 19.95322 110.29104 2833 ft 209 kts 91°
2026-05-06 16:12 19.95336 110.30549 2602 ft 175 kts 94°
2026-05-06 16:13 19.95328 110.31724 2381 ft 153 kts 94°
2026-05-06 16:13 19.95336 110.32813 2182 ft 143 kts 94°
2026-05-06 16:13 19.95338 110.33865 1998 ft 141 kts 95°
2026-05-06 16:13 19.95341 110.34897 1818 ft 139 kts 94°
2026-05-06 16:14 19.95346 110.35920 1642 ft 137 kts 94°
2026-05-06 16:14 19.95347 110.36929 1460 ft 138 kts 94°
2026-05-06 16:14 19.95350 110.37959 1284 ft 141 kts 94°
2026-05-06 16:14 19.95353 110.38999 1099 ft 139 kts 92°
2026-05-06 16:15 19.95360 110.39981 931 ft 125 kts 92°
2026-05-06 16:15 19.95352 110.40875 787 ft 120 kts 92°
2026-05-06 16:15 19.95364 110.41742 653 ft 114 kts 91°
2026-05-06 16:15 19.95352 110.42577 482 ft 110 kts 92°
2026-05-06 16:16 19.95362 110.43403 348 ft 113 kts 90°
2026-05-06 16:16 19.95366 110.44229 193 ft 111 kts 91°
2026-05-06 16:16 19.95372 110.45053 70 ft 111 kts 91°
2026-05-06 16:16 19.95373 110.45764 51 ft 78 kts 89°
2026-05-06 16:17 19.95375 110.46193 51 ft 46 kts 91°
2026-05-06 16:17 19.95364 110.46500 49 ft 37 kts 106°
2026-05-06 16:17 19.95266 110.46720 52 ft 29 kts 121°
2026-05-06 16:17 19.95099 110.46790 53 ft 28 kts 182°
2026-05-06 16:18 19.94905 110.46794 55 ft 28 kts 176°
2026-05-06 16:18 19.94712 110.46793 56 ft 28 kts 180°
2026-05-06 16:18 19.94516 110.46792 55 ft 28 kts 179°
2026-05-06 16:18 19.94326 110.46793 62 ft 27 kts 179°
2026-05-06 16:19 19.94138 110.46798 67 ft 27 kts 179°
2026-05-06 16:19 19.93983 110.46794 69 ft 18 kts 182°
2026-05-06 16:19 19.93849 110.46795 70 ft 20 kts 178°
2026-05-06 16:19 19.93740 110.46768 71 ft 14 kts 242°
2026-05-06 16:20 19.93766 110.46669 68 ft 16 kts 343°
2026-05-06 16:20 19.93809 110.46648 67 ft 5 kts 270°
2026-05-06 16:20 19.93809 110.46616 71 ft 0 kts 271°
2026-05-06 16:20 19.93809 110.46611 71 ft 0 kts 271°
2026-05-06 16:21 19.93809 110.46610 71 ft 0 kts 271°
2026-05-06 16:21 19.93809 110.46609 71 ft 1 kts 271°